{"data":{"norad_id":52618,"epoch":"2026-05-25T02:57:52.807104Z","epoch_age_seconds":64299,"freshness":"FRESH","line1":"1 52618U 22052W   26145.12352786  .00000942  00000+0  77239-4 0  9991","line2":"2 52618  53.2163 285.9939 0000433 245.0598 115.0349 15.08841506222526","mean_motion":15.08841506,"eccentricity":4.33e-5,"inclination_deg":53.2163,"raan_deg":285.9939,"arg_perigee_deg":245.0598,"mean_anomaly_deg":115.0349,"bstar":7.7239e-5,"rev_number":22252,"period_min":95.437459419943,"perigee_km":539.43924170689,"apogee_km":540.03832974994,"semimajor_km":6917.8757857284,"source":"CELESTRAK","updated_at":"2026-05-25T13:38:17.200808Z"}}